EA4TN Weather Reports


Display with metric or nautical units.
time (UTC)temp
F
wind
direction
speed
MPH
gust
MPH
rain 1hr
in
rain 24hr
in
rain mn
in
humidity
%
barometer
mb
20260508235016 56 135 2.0 7.0 0.00 0.11 0.11 82 1011.1
20260508234016 55 52 1.0 8.0 0.00 0.11 0.11 84 1011.0
20260508233016 55 59 4.0 8.0 0.00 0.11 0.11 84 1011.0
20260508232016 56 66 4.0 9.0 0.00 0.11 0.11 84 1011.0
20260508231016 56 79 2.0 7.0 0.00 0.11 0.11 84 1010.8
20260508230017 56 77 3.0 7.0 0.00 0.11 0.11 84 1010.8
20260508225016 56 69 3.0 9.0 0.00 0.11 0.11 83 1011.0
20260508224036 57 68 4.0 10.0 0.00 0.11 0.11 83 1011.3
20260508223016 57 66 5.0 10.0 0.00 0.11 0.11 82 1011.4
20260508222016 57 49 5.0 10.0 0.00 0.11 0.11 82 1011.3
20260508221016 57 47 5.0 9.0 0.00 0.11 0.11 80 1011.3
20260508220016 58 50 5.0 8.0 0.00 0.11 0.11 79 1011.3
20260508215016 58 46 4.0 7.0 0.00 0.11 0.11 79 1011.2
20260508214016 58 49 4.0 8.0 0.00 0.11 0.11 79 1011.2
20260508213016 58 50 4.0 9.0 0.00 0.11 0.11 78 1011.2
20260508212016 58 50 3.0 7.0 0.00 0.11 0.11 76 1011.4
20260508211036 58 67 2.0 4.0 0.00 0.11 0.11 75 1011.2
20260508210016 58 53 2.0 3.0 0.00 0.11 0.11 74 1011.1
20260508205016 58 51 3.0 5.0 0.00 0.11 0.11 73 1011.0
20260508204056 59 50 2.0 4.0 0.00 0.11 0.11 72 1010.8
20260508203016 59 49 2.0 4.0 0.00 0.11 0.11 71 1010.7
20260508202016 59 49 3.0 6.0 0.00 0.11 0.11 71 1010.6
20260508201016 59 52 4.0 6.0 0.00 0.11 0.11 71 1010.5
20260508200017 59 47 4.0 5.0 0.00 0.11 0.11 71 1010.5
20260508195056 59 45 3.0 5.0 0.00 0.11 0.11 71 1010.4
20260508194016 60 44 3.0 5.0 0.00 0.11 0.11 70 1010.2
20260508193016 60 44 2.0 4.0 0.00 0.11 0.11 69 1010.1
20260508192016 61 59 1.0 4.0 0.00 0.11 0.11 68 1010.1
20260508191016 61 49 3.0 5.0 0.00 0.11 0.11 66 1010.0
20260508190016 62 37 3.0 5.0 0.00 0.11 0.11 64 1010.1
20260508185016 63 58 2.0 4.0 0.00 0.11 0.11 63 1010.0
20260508184036 63 52 3.0 6.0 0.00 0.11 0.11 62 1009.9
20260508183016 64 66 2.0 6.0 0.00 0.11 0.11 62 1010.0
20260508182017 64 42 4.0 6.0 0.00 0.11 0.11 60 1009.9
20260508181016 64 47 3.0 6.0 0.00 0.11 0.11 59 1009.9
20260508180016 65 48 4.0 7.0 0.00 0.11 0.11 59 1009.9
20260508175017 65 47 3.0 7.0 0.00 0.11 0.11 57 1009.9
20260508174016 65 21 2.0 4.0 0.00 0.11 0.11 57 1010.0
20260508173016 65 46 3.0 6.0 0.00 0.11 0.11 57 1010.0
20260508172016 65 45 0.0 3.0 0.00 0.11 0.11 57 1010.0
20260508171017 65 46 0.0 4.0 0.00 0.11 0.11 56 1010.0
20260508170016 66 46 2.0 4.0 0.00 0.11 0.11 56 1010.1
20260508165017 67 106 1.0 5.0 0.00 0.11 0.11 53 1010.2
20260508164016 67 118 2.0 5.0 0.00 0.11 0.11 53 1010.3
20260508163016 66 119 1.0 4.0 0.00 0.11 0.11 55 1010.3
20260508162016 66 105 1.0 5.0 0.00 0.11 0.11 54 1010.3
20260508161017 66 263 1.0 7.0 0.00 0.11 0.11 56 1010.3
20260508160016 65 302 3.0 8.0 0.00 0.12 0.11 58 1010.2
20260508155016 65 297 4.0 7.0 0.00 0.13 0.11 58 1010.2
20260508154016 64 273 4.0 8.0 0.00 0.13 0.11 57 1010.2
20260508153036 65 272 4.0 9.0 0.00 0.14 0.11 56 1010.3
20260508152017 66 256 4.0 8.0 0.00 0.16 0.11 55 1010.4
20260508151016 65 253 5.0 10.0 0.00 0.16 0.11 57 1010.5
20260508150016 64 257 3.0 13.0 0.00 0.16 0.11 62 1010.7
20260508145016 63 260 3.0 6.0 0.00 0.16 0.11 69 1010.7
20260508144016 62 264 4.0 8.0 0.00 0.16 0.11 73 1010.8
20260508143016 62 245 4.0 10.0 0.00 0.16 0.11 80 1010.8
20260508142037 59 267 4.0 7.0 0.00 0.16 0.11 91 1010.7
20260508141016 58 237 3.0 9.0 0.00 0.16 0.11 91 1010.7
20260508140017 58 259 2.0 7.0 0.00 0.16 0.11 93 1010.9
20260508135017 58 267 2.0 5.0 0.00 0.16 0.11 91 1010.9
20260508134036 58 141 2.0 6.0 0.00 0.16 0.11 92 1011.0
20260508133017 58 97 1.0 5.0 0.00 0.17 0.11 93 1011.0
20260508132017 56 271 1.0 3.0 0.00 0.22 0.11 92 1010.9
20260508131017 57 252 0.0 3.0 0.08 0.24 0.11 94 1011.1
20260508130016 55 311 0.0 3.0 0.09 0.24 0.11 94 1011.1
20260508125016 55 304 2.0 6.0 0.09 0.29 0.11 93 1011.2
20260508124016 55 7 1.0 5.0 0.09 0.57 0.11 95 1011.3
20260508123017 54 358 3.0 6.0 0.09 0.57 0.11 93 1011.2
20260508122017 55 345 2.0 4.0 0.09 0.57 0.11 91 1012.1
20260508121017 56 67 1.0 4.0 0.02 0.49 0.03 84 1011.9
20260508120017 56 335 1.0 5.0 0.01 0.48 0.02 85 1011.8
20260508115037 56 355 2.0 5.0 0.00 0.47 0.02 88 1012.0
20260508114017 56 45 3.0 6.0 0.00 0.47 0.02 88 1011.9
20260508113016 56 29 3.0 6.0 0.01 0.47 0.02 87 1012.1
20260508112017 56 32 2.0 5.0 0.02 0.47 0.02 88 1012.0
20260508111017 55 60 3.0 4.0 0.02 0.47 0.02 88 1012.0
20260508110016 54 349 2.0 4.0 0.02 0.47 0.02 88 1012.2
20260508105057 54 276 2.0 4.0 0.02 0.47 0.02 87 1012.3
20260508104017 55 349 1.0 5.0 0.02 0.47 0.02 84 1012.2
20260508103016 56 273 1.0 3.0 0.01 0.46 0.01 80 1012.4
20260508102016 57 295 1.0 3.0 0.00 0.46 0.00 78 1012.4
20260508101017 57 356 1.0 4.0 0.00 0.46 0.00 76 1012.3
20260508100017 57 50 1.0 4.0 0.00 0.46 0.00 75 1012.2
20260508095017 57 38 2.0 6.0 0.00 0.46 0.00 75 1012.1
20260508094016 57 58 1.0 5.0 0.00 0.46 0.00 75 1012.3
20260508093016 57 54 2.0 5.0 0.00 0.46 0.00 75 1012.2
20260508092017 56 353 1.0 3.0 0.00 0.46 0.00 77 1012.2
20260508091017 55 13 1.0 4.0 0.00 0.46 0.00 78 1012.3
20260508090017 54 18 1.0 4.0 0.00 0.46 0.00 80 1012.2
20260508085017 54 125 2.0 4.0 0.00 0.46 0.00 81 1012.1
20260508084016 54 137 0.0 2.0 0.00 0.46 0.00 81 1012.3
20260508083037 53 131 1.0 4.0 0.00 0.46 0.00 83 1012.2
20260508082017 52 44 3.0 5.0 0.00 0.46 0.00 84 1012.0
20260508081017 52 58 3.0 7.0 0.00 0.46 0.00 84 1011.8
20260508080017 51 53 3.0 5.0 0.00 0.46 0.00 85 1012.0
20260508075017 51 68 2.0 4.0 0.00 0.46 0.00 85 1012.1
20260508074017 50 43 1.0 4.0 0.00 0.46 0.00 86 1012.1
20260508073017 50 48 2.0 4.0 0.00 0.46 0.00 87 1012.1
20260508072017 49 48 2.0 4.0 0.00 0.46 0.00 88 1012.0
20260508071017 49 70 1.0 4.0 0.00 0.46 0.00 89 1012.0
20260508070017 48 45 3.0 6.0 0.00 0.46 0.00 90 1011.8
20260508065017 48 46 3.0 6.0 0.00 0.46 0.00 90 1011.6
20260508064017 48 47 4.0 8.0 0.00 0.46 0.00 90 1011.9
20260508063017 48 50 4.0 9.0 0.00 0.46 0.00 90 1011.8
20260508062017 48 44 4.0 8.0 0.00 0.46 0.00 90 1011.8
20260508061016 48 53 4.0 8.0 0.00 0.46 0.00 90 1011.6
20260508060017 48 50 4.0 7.0 0.00 0.46 0.00 90 1011.5
20260508055016 48 52 3.0 8.0 0.00 0.46 0.00 89 1011.6
20260508054017 48 50 4.0 7.0 0.00 0.46 0.00 89 1011.6
20260508053017 48 49 3.0 6.0 0.00 0.46 0.00 89 1011.7
20260508052017 48 50 3.0 6.0 0.00 0.46 0.00 89 1011.6
20260508051017 48 94 1.0 6.0 0.00 0.46 0.00 89 1011.3
20260508050017 48 56 2.0 5.0 0.00 0.46 0.00 89 1011.2
20260508045017 47 80 2.0 5.0 0.00 0.46 0.00 89 1011.1
20260508044017 47 67 2.0 5.0 0.00 0.46 0.00 89 1010.8
20260508043020 47 60 2.0 5.0 0.00 0.46 0.00 89 1010.8
20260508042017 48 80 3.0 4.0 0.00 0.46 0.00 89 1010.7
20260508041017 48 73 2.0 4.0 0.00 0.46 0.00 88 1010.6
20260508040017 48 69 3.0 6.0 0.00 0.46 0.00 88 1010.5
20260508035017 48 77 2.0 4.0 0.00 0.46 0.00 88 1010.5
20260508034017 48 63 2.0 5.0 0.00 0.46 0.00 88 1010.6
20260508033017 48 46 2.0 5.0 0.00 0.46 0.00 89 1010.6
20260508032017 48 49 3.0 5.0 0.00 0.46 0.00 89 1010.6
20260508031017 48 63 2.0 6.0 0.00 0.46 0.00 89 1010.8
20260508030017 48 54 2.0 6.0 0.00 0.46 0.00 89 1010.6
20260508025017 48 81 2.0 5.0 0.00 0.46 0.00 90 1010.5
20260508024017 48 94 2.0 7.0 0.00 0.46 0.00 90 1010.5
20260508023017 48 60 3.0 7.0 0.00 0.46 0.00 90 1010.5
20260508022017 48 46 5.0 9.0 0.00 0.46 0.00 89 1010.6
20260508021017 48 58 4.0 7.0 0.00 0.46 0.00 89 1010.4
20260508020017 48 57 4.0 9.0 0.00 0.46 0.00 89 1010.6
20260508015017 49 60 4.0 7.0 0.00 0.46 0.00 89 1010.7
20260508014017 49 62 3.0 7.0 0.00 0.46 0.00 89 1010.6
20260508013017 49 50 3.0 7.0 0.00 0.46 0.00 89 1010.8
20260508012015 49 48 5.0 8.0 0.00 0.46 0.00 89 1010.9
20260508011017 49 69 2.0 7.0 0.00 0.46 0.00 89 1011.6
20260508010017 49 50 4.0 8.0 0.00 0.46 0.00 89 1011.7
20260508005017 49 50 5.0 8.0 0.00 0.46 0.00 89 1011.9
20260508004037 50 47 3.0 6.0 0.00 0.46 0.00 88 1012.1
20260508003037 50 40 2.0 5.0 0.00 0.46 0.00 87 1012.2
20260508002037 51 77 2.0 4.0 0.00 0.46 0.00 86 1012.3
20260508001018 51 77 2.0 3.0 0.00 0.46 0.00 86 1012.7
20260508000017 51 78 2.0 4.0 0.00 0.46 0.00 86 1012.8